User: anonymous   Login
Location: Unspecified
(0.0000°N, 0.0000°E)
Time: 07:14:45
(UTC+00:00)
Language:

BIROS - Orbit

View from above orbital plane
View from above orbital plane
View from above satellite
View from above satellite

Ground track
Ground track

The orbit data is extracted from the following two-line orbital elements,

1 41604U 16040F   17177.79816022 +.00000534 +00000-0 +27347-4 0  9993
2 41604 097.4613 240.0841 0013515 041.2886 318.9368 15.20785579056143
Epoch (UTC): 26 June 2017 19:09:21
Eccentricity: 0.0013515
inclination: 97.4613°
perigee height: 494 km
apogee height: 513 km
right ascension of ascending node: 240.0841°
argument of perigee: 41.2886°
revolutions per day: 15.20785579
mean anomaly at epoch: 318.9368°
orbit number at epoch: 5614

The dashed part of the orbit path shows where the satellite is in the earth's shadow,  

DLR